iso_date,epoch_date,Year,Hour,Min,DOY,POS_DOY,Lat,Lon,BP,Ts,Ta,has_bp,has_ts,has_ta,BuoyID,Buoy_Type,Buoy_Owner,Logistics,Hemisphere
2010-05-16T19:56:38Z,1274039798,2010,19,57,136.831,133.987,82.5118,-62.3276,1007.3,2.2,-999.0,yes,yes,no,300234010427110,SVP,unknown,Switchyard,North
2010-05-18T14:02:24Z,1274191344,2010,14,2,138.585,135.741,82.5118,-62.3276,1015.1,-11.4,-999.0,yes,yes,no,300234010427110,SVP,unknown,Switchyard,North
2010-08-30T22:09:07Z,1283206147,2010,22,9,242.923,240.079,85.4404,-64.1186,1013.7,3.7,-999.0,yes,yes,no,300234010427110,SVP,unknown,Switchyard,North
2011-05-01T13:00:28Z,1304254829,2011,13,0,121.542,121.542,82.5116,-62.325,1007.4,0.1,-999.0,yes,yes,no,300234010427110,SVP,unknown,Switchyard,North
2011-05-01T13:59:31Z,1304258371,2011,14,0,121.583,121.583,82.5118,-62.3276,1007.6,-5.5,-999.0,yes,yes,no,300234010427110,SVP,unknown,Switchyard,North
2011-05-01T15:00:00Z,1304262000,2011,15,0,121.625,121.625,82.5118,-62.3276,1007.9,-6.5,-999.0,yes,yes,no,300234010427110,SVP,unknown,Switchyard,North
2011-05-01T16:00:28Z,1304265629,2011,16,0,121.667,121.667,82.5118,-62.3274,1008.3,-6.9,-999.0,yes,yes,no,300234010427110,SVP,unknown,Switchyard,North
2011-05-01T16:59:31Z,1304269171,2011,17,0,121.708,121.708,82.5118,-62.3274,1008.5,-6.9,-999.0,yes,yes,no,300234010427110,SVP,unknown,Switchyard,North
2011-05-01T18:00:00Z,1304272800,2011,18,0,121.75,121.75,82.5118,-62.3274,1008.8,-6.8,-999.0,yes,yes,no,300234010427110,SVP,unknown,Switchyard,North
2011-05-01T19:00:28Z,1304276429,2011,19,0,121.792,121.792,82.5118,-62.3274,1009.0,-6.6,-999.0,yes,yes,no,300234010427110,SVP,unknown,Switchyard,North
2011-05-01T19:59:31Z,1304279971,2011,20,0,121.833,121.833,82.5118,-62.3274,1009.2,-6.3,-999.0,yes,yes,no,300234010427110,SVP,unknown,Switchyard,North
2011-05-01T21:00:00Z,1304283600,2011,21,0,121.875,121.875,82.5118,-62.3272,1009.0,-6.8,-999.0,yes,yes,no,300234010427110,SVP,unknown,Switchyard,North
2011-05-01T22:00:28Z,1304287229,2011,22,0,121.917,121.917,82.5118,-62.3276,1009.0,-7.5,-999.0,yes,yes,no,300234010427110,SVP,unknown,Switchyard,North
2011-05-01T22:59:31Z,1304290771,2011,23,0,121.958,121.958,82.5118,-62.3274,1009.1,-8.3,-999.0,yes,yes,no,300234010427110,SVP,unknown,Switchyard,North
2011-05-02T00:00:00Z,1304294400,2011,0,0,122.0,122.0,82.5118,-62.3278,1009.0,-9.9,-999.0,yes,yes,no,300234010427110,SVP,unknown,Switchyard,North
2011-05-02T01:00:28Z,1304298029,2011,1,0,122.042,122.042,82.5118,-62.3276,1008.9,-11.3,-999.0,yes,yes,no,300234010427110,SVP,unknown,Switchyard,North
2011-05-02T01:59:31Z,1304301571,2011,2,0,122.083,122.083,82.5118,-62.3276,1009.0,-11.7,-999.0,yes,yes,no,300234010427110,SVP,unknown,Switchyard,North
2011-05-02T03:00:00Z,1304305200,2011,3,0,122.125,122.125,82.5118,-62.3274,1009.1,-12.2,-999.0,yes,yes,no,300234010427110,SVP,unknown,Switchyard,North
2011-05-02T04:00:28Z,1304308829,2011,4,0,122.167,122.167,82.5118,-62.3276,1008.9,-12.4,-999.0,yes,yes,no,300234010427110,SVP,unknown,Switchyard,North
2011-05-02T04:59:31Z,1304312371,2011,5,0,122.208,122.208,82.5118,-62.3274,1009.5,-11.5,-999.0,yes,yes,no,300234010427110,SVP,unknown,Switchyard,North
2011-05-02T06:00:00Z,1304316000,2011,6,0,122.25,122.25,82.5118,-62.3276,1009.9,-10.9,-999.0,yes,yes,no,300234010427110,SVP,unknown,Switchyard,North
2011-05-02T07:00:28Z,1304319629,2011,7,0,122.292,122.292,82.5118,-62.3276,1010.7,-10.4,-999.0,yes,yes,no,300234010427110,SVP,unknown,Switchyard,North
2011-05-02T07:59:31Z,1304323171,2011,8,0,122.333,122.333,82.5118,-62.3276,1011.2,-10.4,-999.0,yes,yes,no,300234010427110,SVP,unknown,Switchyard,North
2011-05-02T09:00:00Z,1304326800,2011,9,0,122.375,122.375,82.5118,-62.3274,1012.1,-10.5,-999.0,yes,yes,no,300234010427110,SVP,unknown,Switchyard,North
2011-05-02T10:00:28Z,1304330429,2011,10,0,122.417,122.417,82.5118,-62.3276,1012.9,-10.2,-999.0,yes,yes,no,300234010427110,SVP,unknown,Switchyard,North
2011-05-02T10:59:31Z,1304333971,2011,11,0,122.458,122.458,82.5118,-62.3276,1012.8,-10.0,-999.0,yes,yes,no,300234010427110,SVP,unknown,Switchyard,North
2011-05-02T12:00:00Z,1304337600,2011,12,0,122.5,122.5,82.5118,-62.3274,1013.2,-9.6,-999.0,yes,yes,no,300234010427110,SVP,unknown,Switchyard,North
2011-05-02T13:00:28Z,1304341229,2011,13,0,122.542,122.542,82.5118,-62.3276,1013.5,-9.0,-999.0,yes,yes,no,300234010427110,SVP,unknown,Switchyard,North
2011-05-02T13:59:31Z,1304344771,2011,14,0,122.583,122.583,82.5118,-62.3276,1013.8,-8.5,-999.0,yes,yes,no,300234010427110,SVP,unknown,Switchyard,North
2011-05-02T15:00:00Z,1304348400,2011,15,0,122.625,122.625,82.5118,-62.3276,1013.9,-8.2,-999.0,yes,yes,no,300234010427110,SVP,unknown,Switchyard,North
2011-05-02T16:00:28Z,1304352029,2011,16,0,122.667,122.667,82.5118,-62.3276,1014.6,-8.0,-999.0,yes,yes,no,300234010427110,SVP,unknown,Switchyard,North
2011-05-02T16:59:31Z,1304355571,2011,17,0,122.708,122.708,82.5118,-62.3276,1014.7,-8.0,-999.0,yes,yes,no,300234010427110,SVP,unknown,Switchyard,North
2011-05-02T18:00:00Z,1304359200,2011,18,0,122.75,122.75,82.5118,-62.3274,1014.6,-8.3,-999.0,yes,yes,no,300234010427110,SVP,unknown,Switchyard,North
2011-05-02T19:00:28Z,1304362829,2011,19,0,122.792,122.792,82.5118,-62.3274,1014.9,-9.2,-999.0,yes,yes,no,300234010427110,SVP,unknown,Switchyard,North
2011-05-02T19:59:31Z,1304366371,2011,20,0,122.833,122.833,82.5118,-62.3276,1015.0,-9.6,-999.0,yes,yes,no,300234010427110,SVP,unknown,Switchyard,North
2011-05-02T21:00:00Z,1304370000,2011,21,0,122.875,122.875,82.5118,-62.3276,1016.0,-8.9,-999.0,yes,yes,no,300234010427110,SVP,unknown,Switchyard,North
2011-05-02T22:00:28Z,1304373629,2011,22,0,122.917,122.917,82.5118,-62.3276,1015.7,-8.6,-999.0,yes,yes,no,300234010427110,SVP,unknown,Switchyard,North
2011-05-02T22:59:31Z,1304377171,2011,23,0,122.958,122.958,82.5118,-62.3276,1015.4,-8.7,-999.0,yes,yes,no,300234010427110,SVP,unknown,Switchyard,North
2011-05-03T00:00:00Z,1304380800,2011,0,0,123.0,123.0,82.5118,-62.3274,1015.5,-9.1,-999.0,yes,yes,no,300234010427110,SVP,unknown,Switchyard,North
2011-05-03T01:00:28Z,1304384429,2011,1,0,123.042,123.042,82.5118,-62.3274,1015.6,-9.3,-999.0,yes,yes,no,300234010427110,SVP,unknown,Switchyard,North
2011-05-03T01:59:31Z,1304387971,2011,2,0,123.083,123.083,82.5118,-62.3274,1015.9,-9.3,-999.0,yes,yes,no,300234010427110,SVP,unknown,Switchyard,North
2011-05-03T03:00:00Z,1304391600,2011,3,0,123.125,123.125,82.5118,-62.3274,1016.0,-9.8,-999.0,yes,yes,no,300234010427110,SVP,unknown,Switchyard,North
2011-05-03T04:00:28Z,1304395229,2011,4,0,123.167,123.167,82.5118,-62.3274,1016.0,-10.5,-999.0,yes,yes,no,300234010427110,SVP,unknown,Switchyard,North
2011-05-03T04:59:31Z,1304398771,2011,5,0,123.208,123.208,82.5118,-62.3274,1016.6,-11.0,-999.0,yes,yes,no,300234010427110,SVP,unknown,Switchyard,North
2011-05-03T06:00:00Z,1304402400,2011,6,0,123.25,123.25,82.5118,-62.3272,1016.4,-11.2,-999.0,yes,yes,no,300234010427110,SVP,unknown,Switchyard,North
2011-05-03T07:59:31Z,1304409571,2011,8,0,123.333,123.333,82.5118,-62.3276,1015.8,-11.4,-999.0,yes,yes,no,300234010427110,SVP,unknown,Switchyard,North
2011-05-03T09:00:00Z,1304413200,2011,9,0,123.375,123.375,82.5118,-62.3276,1016.2,-11.4,-999.0,yes,yes,no,300234010427110,SVP,unknown,Switchyard,North
2011-05-03T10:00:28Z,1304416829,2011,10,0,123.417,123.417,82.5118,-62.3276,1015.7,-11.2,-999.0,yes,yes,no,300234010427110,SVP,unknown,Switchyard,North
2011-05-03T10:59:31Z,1304420371,2011,11,0,123.458,123.458,82.5118,-62.3276,1015.3,-10.9,-999.0,yes,yes,no,300234010427110,SVP,unknown,Switchyard,North
2011-05-03T12:00:00Z,1304424000,2011,12,0,123.5,123.5,82.5118,-62.3276,1014.7,-10.4,-999.0,yes,yes,no,300234010427110,SVP,unknown,Switchyard,North
2011-05-03T13:00:28Z,1304427629,2011,13,0,123.542,123.542,82.5112,-62.328,1013.8,-10.0,-999.0,yes,yes,no,300234010427110,SVP,unknown,Switchyard,North
2011-05-03T13:59:31Z,1304431171,2011,14,0,123.583,123.583,82.5134,-62.311,1013.7,-6.5,-999.0,yes,yes,no,300234010427110,SVP,unknown,Switchyard,North
2011-05-03T15:00:00Z,1304434800,2011,15,0,123.625,123.625,84.6612,-66.909,-999.00,-5.7,-999.0,yes,yes,no,300234010427110,SVP,unknown,Switchyard,North
2011-05-03T16:00:28Z,1304438429,2011,16,0,123.667,123.625,84.6612,-66.909,-999.00,-4.6,-999.0,yes,yes,no,300234010427110,SVP,unknown,Switchyard,North
2011-05-03T16:59:31Z,1304441971,2011,17,0,123.708,123.708,86.8858,-79.6582,1018.5,-0.5,-999.0,yes,yes,no,300234010427110,SVP,unknown,Switchyard,North
2011-05-03T18:00:00Z,1304445600,2011,18,0,123.75,123.75,86.8866,-79.6558,1018.0,-9.8,-999.0,yes,yes,no,300234010427110,SVP,unknown,Switchyard,North
2011-05-03T19:00:28Z,1304449229,2011,19,0,123.792,123.792,86.8876,-79.657,1017.8,-10.0,-999.0,yes,yes,no,300234010427110,SVP,unknown,Switchyard,North
2011-05-03T19:59:31Z,1304452771,2011,20,0,123.833,123.833,86.8888,-79.6618,1017.4,-10.2,-999.0,yes,yes,no,300234010427110,SVP,unknown,Switchyard,North
2011-05-03T21:00:00Z,1304456400,2011,21,0,123.875,123.875,86.8902,-79.668,1017.1,-11.2,-999.0,yes,yes,no,300234010427110,SVP,unknown,Switchyard,North
2011-05-03T22:00:28Z,1304460029,2011,22,0,123.917,123.917,86.8914,-79.6758,1016.6,-10.6,-999.0,yes,yes,no,300234010427110,SVP,unknown,Switchyard,North
2011-05-03T22:59:31Z,1304463571,2011,23,0,123.958,123.958,86.8928,-79.6834,1016.0,-10.6,-999.0,yes,yes,no,300234010427110,SVP,unknown,Switchyard,North
2011-05-04T00:00:00Z,1304467200,2011,0,0,124.0,124.0,86.894,-79.6952,1015.6,-10.8,-999.0,yes,yes,no,300234010427110,SVP,unknown,Switchyard,North
2011-05-04T01:00:28Z,1304470829,2011,1,0,124.042,124.042,86.895,-79.7068,1015.2,-11.1,-999.0,yes,yes,no,300234010427110,SVP,unknown,Switchyard,North
2011-05-04T01:59:31Z,1304474371,2011,2,0,124.083,124.083,86.896,-79.72,1014.8,-11.3,-999.0,yes,yes,no,300234010427110,SVP,unknown,Switchyard,North
2011-05-04T03:00:00Z,1304478000,2011,3,0,124.125,124.125,86.8966,-79.736,1014.1,-11.6,-999.0,yes,yes,no,300234010427110,SVP,unknown,Switchyard,North
2011-05-04T04:00:28Z,1304481629,2011,4,0,124.167,124.167,86.8974,-79.7554,1013.7,-11.7,-999.0,yes,yes,no,300234010427110,SVP,unknown,Switchyard,North
2011-05-04T04:59:31Z,1304485171,2011,5,0,124.208,124.208,86.8982,-79.778,1013.6,-11.8,-999.0,yes,yes,no,300234010427110,SVP,unknown,Switchyard,North
2011-05-04T06:00:00Z,1304488800,2011,6,0,124.25,124.25,86.8988,-79.802,1013.4,-11.9,-999.0,yes,yes,no,300234010427110,SVP,unknown,Switchyard,North
2011-05-04T07:00:28Z,1304492429,2011,7,0,124.292,124.292,86.8996,-79.8256,1012.9,-11.9,-999.0,yes,yes,no,300234010427110,SVP,unknown,Switchyard,North
2011-05-04T07:59:31Z,1304495971,2011,8,0,124.333,124.333,86.9002,-79.848,1012.8,-12.0,-999.0,yes,yes,no,300234010427110,SVP,unknown,Switchyard,North
2011-05-04T09:00:00Z,1304499600,2011,9,0,124.375,124.375,86.9008,-79.87,1012.6,-12.1,-999.0,yes,yes,no,300234010427110,SVP,unknown,Switchyard,North
2011-05-04T10:00:28Z,1304503229,2011,10,0,124.417,124.417,86.9014,-79.8894,1012.3,-12.0,-999.0,yes,yes,no,300234010427110,SVP,unknown,Switchyard,North
2011-05-04T10:59:31Z,1304506771,2011,11,0,124.458,124.458,86.9022,-79.9062,1012.1,-11.7,-999.0,yes,yes,no,300234010427110,SVP,unknown,Switchyard,North
2011-05-04T12:00:00Z,1304510400,2011,12,0,124.5,124.5,86.9028,-79.9192,1012.0,-11.2,-999.0,yes,yes,no,300234010427110,SVP,unknown,Switchyard,North
2011-05-04T13:00:28Z,1304514029,2011,13,0,124.542,124.542,86.9032,-79.9276,1011.8,-11.2,-999.0,yes,yes,no,300234010427110,SVP,unknown,Switchyard,North
2011-05-04T13:59:31Z,1304517571,2011,14,0,124.583,124.583,86.9036,-79.9346,1011.8,-11.4,-999.0,yes,yes,no,300234010427110,SVP,unknown,Switchyard,North
2011-05-04T15:00:00Z,1304521200,2011,15,0,124.625,124.625,86.904,-79.9412,1011.6,-10.3,-999.0,yes,yes,no,300234010427110,SVP,unknown,Switchyard,North
2011-05-04T16:00:28Z,1304524829,2011,16,0,124.667,124.667,86.9042,-79.946,1011.8,-8.6,-999.0,yes,yes,no,300234010427110,SVP,unknown,Switchyard,North
2011-05-04T16:59:31Z,1304528371,2011,17,0,124.708,124.708,86.9042,-79.9494,1011.9,-7.5,-999.0,yes,yes,no,300234010427110,SVP,unknown,Switchyard,North
2011-05-04T18:00:00Z,1304532000,2011,18,0,124.75,124.75,86.9042,-79.9496,1012.0,-7.1,-999.0,yes,yes,no,300234010427110,SVP,unknown,Switchyard,North
2011-05-04T19:00:28Z,1304535629,2011,19,0,124.792,124.792,86.9042,-79.9468,1012.1,-7.0,-999.0,yes,yes,no,300234010427110,SVP,unknown,Switchyard,North
2011-05-04T19:59:31Z,1304539171,2011,20,0,124.833,124.833,86.9044,-79.9394,1012.3,-7.7,-999.0,yes,yes,no,300234010427110,SVP,unknown,Switchyard,North
2011-05-04T21:00:00Z,1304542800,2011,21,0,124.875,124.875,86.9044,-79.9266,1012.5,-8.6,-999.0,yes,yes,no,300234010427110,SVP,unknown,Switchyard,North
2011-05-04T22:00:28Z,1304546429,2011,22,0,124.917,124.917,86.9044,-79.9112,1012.4,-8.9,-999.0,yes,yes,no,300234010427110,SVP,unknown,Switchyard,North
2011-05-04T22:59:31Z,1304549971,2011,23,0,124.958,124.958,86.9044,-79.892,1012.4,-9.5,-999.0,yes,yes,no,300234010427110,SVP,unknown,Switchyard,North
2011-05-05T00:00:00Z,1304553600,2011,0,0,125.0,125.0,86.9044,-79.8718,1012.6,-10.0,-999.0,yes,yes,no,300234010427110,SVP,unknown,Switchyard,North
2011-05-05T01:00:28Z,1304557229,2011,1,0,125.042,125.042,86.9044,-79.8502,1012.9,-11.1,-999.0,yes,yes,no,300234010427110,SVP,unknown,Switchyard,North
2011-05-05T01:59:31Z,1304560771,2011,2,0,125.083,125.083,86.9042,-79.8278,1012.8,-10.8,-999.0,yes,yes,no,300234010427110,SVP,unknown,Switchyard,North
2011-05-05T03:00:00Z,1304564400,2011,3,0,125.125,125.125,86.904,-79.807,1013.0,-10.5,-999.0,yes,yes,no,300234010427110,SVP,unknown,Switchyard,North
2011-05-05T04:00:28Z,1304568029,2011,4,0,125.167,125.167,86.904,-79.7868,1013.0,-11.0,-999.0,yes,yes,no,300234010427110,SVP,unknown,Switchyard,North
2011-05-05T04:59:31Z,1304571571,2011,5,0,125.208,125.208,86.904,-79.7696,1013.1,-11.2,-999.0,yes,yes,no,300234010427110,SVP,unknown,Switchyard,North
2011-05-05T06:00:00Z,1304575200,2011,6,0,125.25,125.25,86.9042,-79.7534,1013.4,-11.4,-999.0,yes,yes,no,300234010427110,SVP,unknown,Switchyard,North
2011-05-05T07:00:28Z,1304578829,2011,7,0,125.292,125.292,86.9044,-79.7386,1013.5,-11.3,-999.0,yes,yes,no,300234010427110,SVP,unknown,Switchyard,North
2011-05-05T07:59:31Z,1304582371,2011,8,0,125.333,125.333,86.905,-79.7238,1013.4,-11.3,-999.0,yes,yes,no,300234010427110,SVP,unknown,Switchyard,North
2011-05-05T09:00:00Z,1304586000,2011,9,0,125.375,125.375,86.9058,-79.7064,1013.7,-11.3,-999.0,yes,yes,no,300234010427110,SVP,unknown,Switchyard,North
2011-05-05T10:00:28Z,1304589629,2011,10,0,125.417,125.417,86.9068,-79.687,1013.6,-11.3,-999.0,yes,yes,no,300234010427110,SVP,unknown,Switchyard,North
2011-05-05T10:59:31Z,1304593171,2011,11,0,125.458,125.458,86.9078,-79.6672,1013.2,-12.1,-999.0,yes,yes,no,300234010427110,SVP,unknown,Switchyard,North
2011-05-05T12:00:00Z,1304596800,2011,12,0,125.5,125.5,86.9092,-79.6484,1013.5,-12.3,-999.0,yes,yes,no,300234010427110,SVP,unknown,Switchyard,North
2011-05-05T13:00:28Z,1304600429,2011,13,0,125.542,125.542,86.9106,-79.629,1013.6,-12.1,-999.0,yes,yes,no,300234010427110,SVP,unknown,Switchyard,North
2011-05-05T13:59:31Z,1304603971,2011,14,0,125.583,125.583,86.912,-79.608,1013.7,-11.7,-999.0,yes,yes,no,300234010427110,SVP,unknown,Switchyard,North
2011-05-05T15:00:00Z,1304607600,2011,15,0,125.625,125.625,86.9132,-79.5872,1013.7,-11.2,-999.0,yes,yes,no,300234010427110,SVP,unknown,Switchyard,North
2011-05-05T16:00:28Z,1304611229,2011,16,0,125.667,125.667,86.9144,-79.57,1013.8,-10.7,-999.0,yes,yes,no,300234010427110,SVP,unknown,Switchyard,North
2011-05-05T16:59:31Z,1304614771,2011,17,0,125.708,125.708,86.9154,-79.5544,1013.9,-10.4,-999.0,yes,yes,no,300234010427110,SVP,unknown,Switchyard,North
2011-05-05T18:00:00Z,1304618400,2011,18,0,125.75,125.75,86.9162,-79.5418,1014.1,-10.2,-999.0,yes,yes,no,300234010427110,SVP,unknown,Switchyard,North
2011-05-05T19:00:28Z,1304622029,2011,19,0,125.792,125.792,86.9168,-79.5298,1014.3,-9.9,-999.0,yes,yes,no,300234010427110,SVP,unknown,Switchyard,North
2011-05-05T19:59:31Z,1304625571,2011,20,0,125.833,125.833,86.9174,-79.522,1014.3,-9.6,-999.0,yes,yes,no,300234010427110,SVP,unknown,Switchyard,North
2011-05-05T21:00:00Z,1304629200,2011,21,0,125.875,125.875,86.9178,-79.5126,1014.4,-9.0,-999.0,yes,yes,no,300234010427110,SVP,unknown,Switchyard,North
2011-05-05T22:00:28Z,1304632829,2011,22,0,125.917,125.917,86.9182,-79.5042,1014.5,-8.7,-999.0,yes,yes,no,300234010427110,SVP,unknown,Switchyard,North
2011-05-05T22:59:31Z,1304636371,2011,23,0,125.958,125.958,86.9184,-79.495,1014.8,-8.8,-999.0,yes,yes,no,300234010427110,SVP,unknown,Switchyard,North
2011-05-06T00:00:00Z,1304640000,2011,0,0,126.0,126.0,86.9184,-79.4866,1014.9,-8.9,-999.0,yes,yes,no,300234010427110,SVP,unknown,Switchyard,North
2011-05-06T01:00:28Z,1304643629,2011,1,0,126.042,126.042,86.9184,-79.479,1015.1,-8.8,-999.0,yes,yes,no,300234010427110,SVP,unknown,Switchyard,North
2011-05-06T01:59:31Z,1304647171,2011,2,0,126.083,126.083,86.918,-79.4732,1015.1,-8.5,-999.0,yes,yes,no,300234010427110,SVP,unknown,Switchyard,North
2011-05-06T03:00:00Z,1304650800,2011,3,0,126.125,126.125,86.9178,-79.4712,1015.2,-8.5,-999.0,yes,yes,no,300234010427110,SVP,unknown,Switchyard,North
2011-05-06T04:00:28Z,1304654429,2011,4,0,126.167,126.167,86.9174,-79.472,1015.1,-9.0,-999.0,yes,yes,no,300234010427110,SVP,unknown,Switchyard,North
2011-05-06T04:59:31Z,1304657971,2011,5,0,126.208,126.208,86.917,-79.4744,1015.3,-9.5,-999.0,yes,yes,no,300234010427110,SVP,unknown,Switchyard,North
2011-05-06T06:00:00Z,1304661600,2011,6,0,126.25,126.25,86.9166,-79.4778,1015.5,-9.7,-999.0,yes,yes,no,300234010427110,SVP,unknown,Switchyard,North
2011-05-06T07:00:28Z,1304665229,2011,7,0,126.292,126.292,86.9162,-79.4796,1015.6,-9.9,-999.0,yes,yes,no,300234010427110,SVP,unknown,Switchyard,North
2011-05-06T07:59:31Z,1304668771,2011,8,0,126.333,126.333,86.9158,-79.4762,1015.6,-9.3,-999.0,yes,yes,no,300234010427110,SVP,unknown,Switchyard,North
2011-05-06T09:00:00Z,1304672400,2011,9,0,126.375,126.375,86.9158,-79.4676,1015.8,-8.8,-999.0,yes,yes,no,300234010427110,SVP,unknown,Switchyard,North
2011-05-06T10:00:28Z,1304676029,2011,10,0,126.417,126.417,86.9158,-79.4526,1016.3,-8.7,-999.0,yes,yes,no,300234010427110,SVP,unknown,Switchyard,North
2011-05-06T10:59:31Z,1304679571,2011,11,0,126.458,126.458,86.9158,-79.431,1016.4,-8.6,-999.0,yes,yes,no,300234010427110,SVP,unknown,Switchyard,North
2011-05-06T12:00:00Z,1304683200,2011,12,0,126.5,126.5,86.9158,-79.4024,1016.9,-9.2,-999.0,yes,yes,no,300234010427110,SVP,unknown,Switchyard,North
2011-05-06T13:00:28Z,1304686829,2011,13,0,126.542,126.542,86.9154,-79.3708,1017.1,-9.8,-999.0,yes,yes,no,300234010427110,SVP,unknown,Switchyard,North
2011-05-06T13:59:31Z,1304690371,2011,14,0,126.583,126.583,86.915,-79.3386,1017.5,-9.5,-999.0,yes,yes,no,300234010427110,SVP,unknown,Switchyard,North
2011-05-06T15:00:00Z,1304694000,2011,15,0,126.625,126.625,86.9142,-79.307,1017.7,-8.9,-999.0,yes,yes,no,300234010427110,SVP,unknown,Switchyard,North
2011-05-06T16:00:28Z,1304697629,2011,16,0,126.667,126.667,86.9134,-79.2788,1017.9,-8.1,-999.0,yes,yes,no,300234010427110,SVP,unknown,Switchyard,North
2011-05-06T16:59:31Z,1304701171,2011,17,0,126.708,126.708,86.9126,-79.2542,1018.3,-7.7,-999.0,yes,yes,no,300234010427110,SVP,unknown,Switchyard,North
2011-05-06T18:00:00Z,1304704800,2011,18,0,126.75,126.75,86.9118,-79.2334,1018.6,-7.6,-999.0,yes,yes,no,300234010427110,SVP,unknown,Switchyard,North
2011-05-06T19:00:28Z,1304708429,2011,19,0,126.792,126.792,86.9112,-79.2146,1019.1,-7.3,-999.0,yes,yes,no,300234010427110,SVP,unknown,Switchyard,North
2011-05-06T19:59:31Z,1304711971,2011,20,0,126.833,126.833,86.9106,-79.2008,1019.5,-7.0,-999.0,yes,yes,no,300234010427110,SVP,unknown,Switchyard,North
2011-05-06T21:00:00Z,1304715600,2011,21,0,126.875,126.875,86.9098,-79.185,1019.7,-7.0,-999.0,yes,yes,no,300234010427110,SVP,unknown,Switchyard,North
2011-05-06T22:00:28Z,1304719229,2011,22,0,126.917,126.917,86.909,-79.1696,1019.7,-7.0,-999.0,yes,yes,no,300234010427110,SVP,unknown,Switchyard,North
2011-05-06T22:59:31Z,1304722771,2011,23,0,126.958,126.958,86.908,-79.15,1020.0,-6.7,-999.0,yes,yes,no,300234010427110,SVP,unknown,Switchyard,North
2011-05-09T00:00:00Z,1304899200,2011,0,0,129.0,129.0,86.8156,-77.2966,1019.5,-11.9,-999.0,yes,yes,no,300234010427110,SVP,unknown,Switchyard,North
2011-05-09T01:00:28Z,1304902829,2011,1,0,129.042,129.042,86.8134,-77.2126,1019.8,-12.2,-999.0,yes,yes,no,300234010427110,SVP,unknown,Switchyard,North
2011-05-09T01:59:31Z,1304906371,2011,2,0,129.083,129.083,86.8108,-77.1276,1019.9,-12.5,-999.0,yes,yes,no,300234010427110,SVP,unknown,Switchyard,North
2011-05-09T03:00:00Z,1304910000,2011,3,0,129.125,129.125,86.8082,-77.046,1020.1,-12.7,-999.0,yes,yes,no,300234010427110,SVP,unknown,Switchyard,North
2011-05-09T04:00:28Z,1304913629,2011,4,0,129.167,129.167,86.8054,-76.9684,1020.1,-13.1,-999.0,yes,yes,no,300234010427110,SVP,unknown,Switchyard,North
2011-05-09T04:59:31Z,1304917171,2011,5,0,129.208,129.208,86.803,-76.8958,1020.3,-13.3,-999.0,yes,yes,no,300234010427110,SVP,unknown,Switchyard,North
2011-05-09T06:00:00Z,1304920800,2011,6,0,129.25,129.25,86.8004,-76.8254,1020.7,-13.4,-999.0,yes,yes,no,300234010427110,SVP,unknown,Switchyard,North
2011-05-09T07:00:28Z,1304924429,2011,7,0,129.292,129.292,86.7982,-76.7578,1021.0,-13.2,-999.0,yes,yes,no,300234010427110,SVP,unknown,Switchyard,North
2011-05-09T07:59:31Z,1304927971,2011,8,0,129.333,129.333,86.7962,-76.6894,1021.4,-13.2,-999.0,yes,yes,no,300234010427110,SVP,unknown,Switchyard,North
2011-05-09T09:00:00Z,1304931600,2011,9,0,129.375,129.375,86.794,-76.6214,1022.0,-12.7,-999.0,yes,yes,no,300234010427110,SVP,unknown,Switchyard,North
2011-05-09T10:00:28Z,1304935229,2011,10,0,129.417,129.417,86.792,-76.5546,1022.4,-12.9,-999.0,yes,yes,no,300234010427110,SVP,unknown,Switchyard,North
2011-05-09T10:59:31Z,1304938771,2011,11,0,129.458,129.458,86.7898,-76.4842,1022.7,-12.7,-999.0,yes,yes,no,300234010427110,SVP,unknown,Switchyard,North
2011-05-09T12:00:00Z,1304942400,2011,12,0,129.5,129.5,86.7878,-76.4132,1022.9,-12.5,-999.0,yes,yes,no,300234010427110,SVP,unknown,Switchyard,North
2011-05-09T13:00:28Z,1304946029,2011,13,0,129.542,129.542,86.7858,-76.3406,1023.2,-12.3,-999.0,yes,yes,no,300234010427110,SVP,unknown,Switchyard,North
2011-05-09T13:59:31Z,1304949571,2011,14,0,129.583,129.583,86.784,-76.2704,1023.5,-11.8,-999.0,yes,yes,no,300234010427110,SVP,unknown,Switchyard,North
2011-05-09T15:00:00Z,1304953200,2011,15,0,129.625,129.625,86.7826,-76.1992,1023.6,-11.0,-999.0,yes,yes,no,300234010427110,SVP,unknown,Switchyard,North
2011-05-09T16:00:28Z,1304956829,2011,16,0,129.667,129.667,86.7812,-76.1242,1023.8,-10.9,-999.0,yes,yes,no,300234010427110,SVP,unknown,Switchyard,North
2011-05-09T16:59:31Z,1304960371,2011,17,0,129.708,129.708,86.7796,-76.0462,1024.1,-11.0,-999.0,yes,yes,no,300234010427110,SVP,unknown,Switchyard,North
2011-05-09T18:00:00Z,1304964000,2011,18,0,129.75,129.75,86.778,-75.9674,1024.5,-11.0,-999.0,yes,yes,no,300234010427110,SVP,unknown,Switchyard,North
2011-05-09T19:00:28Z,1304967629,2011,19,0,129.792,129.792,86.7766,-75.892,1024.7,-11.0,-999.0,yes,yes,no,300234010427110,SVP,unknown,Switchyard,North
2011-05-09T19:59:31Z,1304971171,2011,20,0,129.833,129.833,86.775,-75.8134,1025.2,-11.1,-999.0,yes,yes,no,300234010427110,SVP,unknown,Switchyard,North
2011-05-09T21:00:00Z,1304974800,2011,21,0,129.875,129.875,86.7734,-75.733,1025.6,-11.3,-999.0,yes,yes,no,300234010427110,SVP,unknown,Switchyard,North
2011-05-09T22:00:28Z,1304978429,2011,22,0,129.917,129.917,86.7716,-75.656,1026.1,-11.5,-999.0,yes,yes,no,300234010427110,SVP,unknown,Switchyard,North
2011-05-09T22:59:31Z,1304981971,2011,23,0,129.958,129.958,86.7698,-75.5786,1026.6,-11.7,-999.0,yes,yes,no,300234010427110,SVP,unknown,Switchyard,North
2011-05-10T00:00:00Z,1304985600,2011,0,0,130.0,130.0,86.7682,-75.5052,1026.9,-12.0,-999.0,yes,yes,no,300234010427110,SVP,unknown,Switchyard,North
2011-05-10T01:00:28Z,1304989229,2011,1,0,130.042,130.042,86.7668,-75.4372,1027.3,-12.0,-999.0,yes,yes,no,300234010427110,SVP,unknown,Switchyard,North